This is the latest recevied weather packets stored in our database for station/object KO6MEX-13. If no packets are shown the sender has not sent any weather packets the latest 10 day(s).
| Time | Temp. | Humidity | Pressure | Rain* | Wind** | Luminosity | Snow |
|---|---|---|---|---|---|---|---|
| 1777832492 | 17.22° C | 51% | 1018.2 hPa | 0 mm | - | 411 W/m² | - |
| 1777832189 | 17.22° C | 53% | 1018.1 hPa | 0 mm | - | 388 W/m² | - |
| 1777831886 | 16.67° C | 52% | 1018.1 hPa | 0 mm | - | 446 W/m² | - |
| 1777831582 | 16.67° C | 53% | 1018.3 hPa | 0 mm | - | 367 W/m² | - |
| 1777831280 | 16.67° C | 53% | 1018.2 hPa | 0 mm | - | 351 W/m² | - |
| 1777830977 | 16.67° C | 55% | 1018.1 hPa | 0 mm | - | 371 W/m² | - |
| 1777830674 | 16.67° C | 55% | 1018.1 hPa | 0 mm | - | 351 W/m² | - |
| 1777830371 | 16.67° C | 54% | 1018.2 hPa | 0 mm | - | 328 W/m² | - |
| 1777830068 | 16.11° C | 56% | 1018.1 hPa | 0 mm | - | 337 W/m² | - |
| 1777829763 | 16.11° C | 56% | 1018.4 hPa | 0 mm | - | 283 W/m² | - |
| 1777829460 | 16.11° C | 57% | 1018.1 hPa | 0 mm | - | 255 W/m² | - |
| 1777829156 | 15.56° C | 60% | 1018.2 hPa | 0 mm | - | 275 W/m² | - |
| 1777828854 | 16.11° C | 60% | 1018.1 hPa | 0 mm | - | 274 W/m² | - |
| 1777828550 | 15.56° C | 61% | 1018.3 hPa | 0 mm | - | 265 W/m² | - |
| 1777828248 | 15.56° C | 62% | 1018.1 hPa | 0 mm | - | 250 W/m² | - |
| 1777827944 | 15.56° C | 64% | 1018 hPa | 0 mm | - | 245 W/m² | - |
| 1777827641 | 15.56° C | 68% | 1018.1 hPa | 0 mm | - | 268 W/m² | - |
| 1777827339 | 15.56° C | 68% | 1018 hPa | 0 mm | - | 270 W/m² | - |
| 1777827035 | 15.56° C | 69% | 1017.7 hPa | 0 mm | - | 250 W/m² | - |
| 1777826732 | 15° C | 68% | 1018 hPa | 0 mm | - | 225 W/m² | - |
| 1777826428 | 15° C | 69% | 1017.9 hPa | 0 mm | - | 219 W/m² | - |
| 1777826126 | 15° C | 69% | 1017.6 hPa | 0 mm | - | 210 W/m² | - |
| 1777825823 | 15° C | 69% | 1017.9 hPa | 0 mm | - | 198 W/m² | - |
| 1777825520 | 15° C | 70% | 1017.8 hPa | 0 mm | - | 177 W/m² | - |
| 1777825218 | 15° C | 70% | 1017.8 hPa | 0 mm | - | 170 W/m² | - |
* Rain latest hour (hover to see other rain measurements)
** Current wind speed in m/s (hover to see current wind gust speed)